Location: Newark
(41.7772°N, 74.7403°W)
Time: 13:32:41
(UTC+00:00)

Transit 4A - Pass Details

Date: 04 June 2020
Orbit: 866 x 978 km, 66.8° (Epoch: 06 July)

Event Time Altitude Azimuth Distance (km) Brightness Sun altitude
Exits shadow 06:13:04 35° 255° (WSW) 1,380 8.5 -23.4°
Maximum altitude 06:15:06 49° 306° (NW) 1,115 8.3 -23.3°
Drops below altitude 10° 06:20:50 10° 21° (NNE) 2,567 11.3 -22.9°
Sets 06:23:28 0° 27° (NNE) 3,527 12.4 -22.7°
